Regional Weather Roundup
Issued by NWS Goodland, KS

Home | Current Version | Previous Version | Graphics & Text | Print | Product List | Glossary On
Versions: 1 2 3 4 5 6 7 8 9 10 11 12 13 14 15 16 17 18 19 20 21 22 23 24 25 26 27 28 29 30 31 32 33 34 35 36 37 38 39 40 41 42 43 44 45 46 47 48 49 50
000
ASUS43 KGLD 191759
RWRGLD

GOODLAND FORECAST AREA HOURLY WEATHER ROUNDUP
NATIONAL WEATHER SERVICE GOODLAND KS
1200 PM MDT FRI SEP 19 2014

...OFFICIAL OBSERVATIONS...

CITY           SKY/WX    TMP DP  RH WIND       PRES   REMARKS
GOODLAND KS    SUNNY     84  57  39 S20G30    29.94F
HILL CITY KS   SUNNY     87  61  41 S18G26    29.91F
IMPERIAL NEB   SUNNY     89  54  30 SW15G22   29.90S
MCCOOK NEB     SUNNY     91  58  32 SW18G25   29.88S
AKRON CO       SUNNY     82  44  26 VRB7      29.98F
BURLINGTON CO  SUNNY     83  54  36 S21G30    29.98R
LIMON CO       SUNNY     81  45  28 VRB5      30.03S
$$

...UNOFFICIAL OBSERVATIONS...

CITY           SKY/WX    TMP DP  RH WIND       PRES   REMARKS
COLBY KS       SUNNY     84  64  51 S17G23    29.93F
GOVE KS          N/A     83  32  16 MISG        N/A
NORTON KS      SUNNY     88  57  35 S16G23    29.90S
SHARON SPRINGS   N/A     83  61  47 S20G26      N/A
WAKEENEY KS      N/A     85  57  38 MISG        N/A
TRENTON NEB      N/A     89  32  13 S12G18      N/A
KIT CARSON CO    N/A     79  58  47 N12G21      N/A
YUMA CO          N/A     85  47  26 W9G16       N/A
$$



USA.gov is the U.S. government's official web portal to all federal, state and local government web resources and services.